Year,Month,Day,Hour,Minute,Value (Times are PST for temperature in C)
2017,10,15,00,00,9.40
2017,10,15,00,01,9.40
2017,10,15,00,02,9.40
2017,10,15,00,03,9.40
2017,10,15,00,04,9.40
2017,10,15,00,05,9.40
2017,10,15,00,06,9.40
2017,10,15,00,07,9.30
2017,10,15,00,08,9.30
2017,10,15,00,09,9.30
2017,10,15,00,10,9.30
2017,10,15,00,11,9.30
2017,10,15,00,12,9.30
2017,10,15,00,13,9.30
2017,10,15,00,14,9.30
2017,10,15,00,15,9.30
2017,10,15,00,16,9.30
2017,10,15,00,17,9.30
2017,10,15,00,18,9.30
2017,10,15,00,19,9.30
2017,10,15,00,20,9.30
2017,10,15,00,21,9.30
2017,10,15,00,22,9.30
2017,10,15,00,23,9.30
2017,10,15,00,24,9.30
2017,10,15,00,25,9.30
2017,10,15,00,26,9.30
2017,10,15,00,27,9.30
2017,10,15,00,28,9.30
2017,10,15,00,29,9.30
2017,10,15,00,30,9.30
2017,10,15,00,31,9.30
2017,10,15,00,32,9.30
2017,10,15,00,33,9.30
2017,10,15,00,34,9.30
2017,10,15,00,35,9.30
2017,10,15,00,36,9.30
2017,10,15,00,37,9.30
2017,10,15,00,38,9.30
2017,10,15,00,39,9.30
2017,10,15,00,40,9.30
2017,10,15,00,41,9.30
2017,10,15,00,42,9.30
2017,10,15,00,43,9.30
2017,10,15,00,44,9.30
2017,10,15,00,45,9.30
2017,10,15,00,46,9.30
2017,10,15,00,47,9.30
2017,10,15,00,48,9.30
2017,10,15,00,49,9.30
2017,10,15,00,50,9.30
2017,10,15,00,51,9.30
2017,10,15,00,52,9.30
2017,10,15,00,53,9.30
2017,10,15,00,54,9.30
2017,10,15,00,55,9.30
2017,10,15,00,56,9.30
2017,10,15,00,57,9.30
2017,10,15,00,58,9.30
2017,10,15,00,59,9.30
2017,10,15,01,00,9.30
2017,10,15,01,01,9.30
2017,10,15,01,02,9.30
2017,10,15,01,03,9.30
2017,10,15,01,04,9.30
2017,10,15,01,05,9.30
2017,10,15,01,06,9.30
2017,10,15,01,07,9.30
2017,10,15,01,08,9.30
2017,10,15,01,09,9.30
2017,10,15,01,10,9.30
2017,10,15,01,11,9.30
2017,10,15,01,12,9.30
2017,10,15,01,13,9.30
2017,10,15,01,14,9.30
2017,10,15,01,15,9.30
2017,10,15,01,16,9.30
2017,10,15,01,17,9.30
2017,10,15,01,18,9.30
2017,10,15,01,19,9.30
2017,10,15,01,20,9.30
2017,10,15,01,21,9.30
2017,10,15,01,22,9.30
2017,10,15,01,23,9.30
2017,10,15,01,24,9.30
2017,10,15,01,25,9.30
2017,10,15,01,26,9.30
2017,10,15,01,27,9.30
2017,10,15,01,28,9.30
2017,10,15,01,29,9.30
2017,10,15,01,30,9.30
2017,10,15,01,31,9.30
2017,10,15,01,32,9.30
2017,10,15,01,33,9.30
2017,10,15,01,34,9.30
2017,10,15,01,35,9.30
2017,10,15,01,36,9.30
2017,10,15,01,37,9.30
2017,10,15,01,38,9.30
2017,10,15,01,39,9.30
2017,10,15,01,40,9.30
2017,10,15,01,41,9.30
2017,10,15,01,42,9.30
2017,10,15,01,43,9.30
2017,10,15,01,44,9.30
2017,10,15,01,45,9.30
2017,10,15,01,46,9.30
2017,10,15,01,47,9.30
2017,10,15,01,48,9.30
2017,10,15,01,49,9.30
2017,10,15,01,50,9.30
2017,10,15,01,51,9.30
2017,10,15,01,52,9.30
2017,10,15,01,53,9.30
2017,10,15,01,54,9.30
2017,10,15,01,55,9.30
2017,10,15,01,56,9.30
2017,10,15,01,57,9.30
2017,10,15,01,58,9.30
2017,10,15,01,59,9.30
2017,10,15,02,00,9.30
2017,10,15,02,01,9.30
2017,10,15,02,02,9.30
2017,10,15,02,03,9.30
2017,10,15,02,04,9.30
2017,10,15,02,05,9.30
2017,10,15,02,06,9.30
2017,10,15,02,07,9.30
2017,10,15,02,08,9.20
2017,10,15,02,09,9.20
2017,10,15,02,10,9.20
2017,10,15,02,11,9.20
2017,10,15,02,12,9.20
2017,10,15,02,13,9.20
2017,10,15,02,14,9.20
2017,10,15,02,15,9.20
2017,10,15,02,16,9.20
2017,10,15,02,17,9.20
2017,10,15,02,18,9.20
2017,10,15,02,19,9.20
2017,10,15,02,20,9.20
2017,10,15,02,21,9.20
2017,10,15,02,22,9.20
2017,10,15,02,23,9.20
2017,10,15,02,24,9.20
2017,10,15,02,25,9.20
2017,10,15,02,26,9.20
2017,10,15,02,27,9.20
2017,10,15,02,28,9.20
2017,10,15,02,29,9.20
2017,10,15,02,30,9.20
2017,10,15,02,31,9.20
2017,10,15,02,32,9.20
2017,10,15,02,33,9.20
2017,10,15,02,34,9.20
2017,10,15,02,35,9.20
2017,10,15,02,36,9.20
2017,10,15,02,37,9.20
2017,10,15,02,38,9.20
2017,10,15,02,39,9.20
2017,10,15,02,40,9.20
2017,10,15,02,41,9.20
2017,10,15,02,42,9.20
2017,10,15,02,43,9.20
2017,10,15,02,44,9.20
2017,10,15,02,45,9.20
2017,10,15,02,46,9.20
2017,10,15,02,47,9.20
2017,10,15,02,48,9.20
2017,10,15,02,49,9.20
2017,10,15,02,50,9.20
2017,10,15,02,51,9.20
2017,10,15,02,52,9.10
2017,10,15,02,53,9.10
2017,10,15,02,54,9.10
2017,10,15,02,55,9.10
2017,10,15,02,56,9.10
2017,10,15,02,57,9.10
2017,10,15,02,58,9.10
2017,10,15,02,59,9.10
2017,10,15,03,00,9.10
2017,10,15,03,01,9.10
2017,10,15,03,02,9.10
2017,10,15,03,03,9.10
2017,10,15,03,04,9.10
2017,10,15,03,05,9.10
2017,10,15,03,06,9.10
2017,10,15,03,07,9.10
2017,10,15,03,08,9.10
2017,10,15,03,09,9.10
2017,10,15,03,10,9.10
2017,10,15,03,11,9.10
2017,10,15,03,12,9.10
2017,10,15,03,13,9.10
2017,10,15,03,14,9.10
2017,10,15,03,15,9.10
2017,10,15,03,16,9.10
2017,10,15,03,17,9.10
2017,10,15,03,18,9.10
2017,10,15,03,19,9.00
2017,10,15,03,20,9.00
2017,10,15,03,21,9.00
2017,10,15,03,22,9.00
2017,10,15,03,23,9.00
2017,10,15,03,24,9.00
2017,10,15,03,25,9.00
2017,10,15,03,26,9.00
2017,10,15,03,27,9.00
2017,10,15,03,28,9.00
2017,10,15,03,29,9.00
2017,10,15,03,30,9.00
2017,10,15,03,31,9.00
2017,10,15,03,32,9.00
2017,10,15,03,33,8.90
2017,10,15,03,34,8.90
2017,10,15,03,35,8.90
2017,10,15,03,36,8.90
2017,10,15,03,37,8.90
2017,10,15,03,38,8.90
2017,10,15,03,39,8.90
2017,10,15,03,40,8.90
2017,10,15,03,41,8.90
2017,10,15,03,42,8.90
2017,10,15,03,43,8.80
2017,10,15,03,44,8.80
2017,10,15,03,45,8.80
2017,10,15,03,46,8.80
2017,10,15,03,47,8.80
2017,10,15,03,48,8.80
2017,10,15,03,49,8.80
2017,10,15,03,50,8.80
2017,10,15,03,51,8.70
2017,10,15,03,52,8.70
2017,10,15,03,53,8.70
2017,10,15,03,54,8.70
2017,10,15,03,55,8.70
2017,10,15,03,56,8.70
2017,10,15,03,57,8.70
2017,10,15,03,58,8.70
2017,10,15,03,59,8.60
2017,10,15,04,00,8.60
2017,10,15,04,01,8.60
2017,10,15,04,02,8.60
2017,10,15,04,03,8.60
2017,10,15,05,04,8.90
2017,10,15,05,05,8.90
2017,10,15,05,06,8.80
2017,10,15,05,07,8.80
2017,10,15,05,08,8.80
2017,10,15,05,09,8.80
2017,10,15,05,10,8.80
2017,10,15,05,11,8.80
2017,10,15,05,12,8.80
2017,10,15,05,13,8.80
2017,10,15,05,14,8.80
2017,10,15,05,15,8.80
2017,10,15,05,16,8.80
2017,10,15,05,17,8.80
2017,10,15,05,18,8.80
2017,10,15,05,19,8.70
2017,10,15,05,20,8.70
2017,10,15,05,21,8.70
2017,10,15,05,22,8.70
2017,10,15,05,23,8.70
2017,10,15,05,24,8.70
2017,10,15,05,25,8.70
2017,10,15,05,26,8.70
2017,10,15,05,27,8.60
2017,10,15,05,28,8.60
2017,10,15,05,29,8.60
2017,10,15,05,30,8.60
2017,10,15,05,31,8.60
2017,10,15,05,32,8.60
2017,10,15,05,33,8.60
2017,10,15,05,34,8.60
2017,10,15,05,35,8.60
2017,10,15,05,36,8.50
2017,10,15,05,37,8.50
2017,10,15,05,38,8.50
2017,10,15,05,39,8.50
2017,10,15,05,40,8.50
2017,10,15,05,41,8.50
2017,10,15,05,42,8.40
2017,10,15,05,43,8.40
2017,10,15,05,44,8.40
2017,10,15,05,45,8.40
2017,10,15,05,46,8.40
2017,10,15,05,47,8.40
2017,10,15,05,48,8.40
2017,10,15,05,49,8.40
2017,10,15,05,50,8.30
2017,10,15,05,51,8.30
2017,10,15,05,52,8.30
2017,10,15,05,53,8.30
2017,10,15,05,54,8.30
2017,10,15,05,55,8.30
2017,10,15,05,56,8.30
2017,10,15,05,57,8.20
2017,10,15,05,58,8.20
2017,10,15,05,59,8.20
2017,10,15,06,00,8.20
2017,10,15,06,01,8.20
2017,10,15,06,02,8.20
2017,10,15,06,03,8.20
2017,10,15,06,04,8.10
2017,10,15,06,05,8.10
2017,10,15,06,06,8.10
2017,10,15,06,07,8.10
2017,10,15,06,08,8.10
2017,10,15,06,09,8.10
2017,10,15,06,10,8.10
2017,10,15,06,11,8.10
2017,10,15,06,12,8.10
2017,10,15,06,13,8.10
2017,10,15,06,14,8.00
2017,10,15,06,15,8.00
2017,10,15,06,16,8.00
2017,10,15,06,17,8.00
2017,10,15,06,18,8.00
2017,10,15,06,19,7.90
2017,10,15,06,20,7.90
2017,10,15,06,21,7.90
2017,10,15,06,22,7.90
2017,10,15,06,23,7.90
2017,10,15,06,24,7.90
2017,10,15,06,25,7.90
2017,10,15,06,26,7.90
2017,10,15,06,27,7.90
2017,10,15,06,28,7.90
2017,10,15,06,29,7.90
2017,10,15,06,30,7.80
2017,10,15,06,31,7.80
2017,10,15,06,32,7.80
2017,10,15,06,33,7.80
2017,10,15,06,34,7.80
2017,10,15,06,35,7.80
2017,10,15,06,36,7.80
2017,10,15,06,37,7.80
2017,10,15,06,38,7.80
2017,10,15,06,39,7.70
2017,10,15,06,40,7.70
2017,10,15,06,41,7.70
2017,10,15,06,42,7.70
2017,10,15,06,43,7.70
2017,10,15,06,44,7.70
2017,10,15,06,45,7.70
2017,10,15,06,46,7.70
2017,10,15,06,47,7.70
2017,10,15,06,48,7.70
2017,10,15,06,49,7.70
2017,10,15,06,50,7.70
2017,10,15,06,51,7.70
2017,10,15,06,52,7.70
2017,10,15,06,53,7.70
2017,10,15,08,17,7.00
2017,10,15,08,18,7.00
2017,10,15,08,19,7.00
2017,10,15,08,20,7.10
2017,10,15,08,21,7.10
2017,10,15,08,22,7.10
2017,10,15,08,23,7.10
2017,10,15,08,24,7.10
2017,10,15,08,25,7.10
2017,10,15,08,26,7.10
2017,10,15,08,27,7.10
2017,10,15,08,28,7.10
2017,10,15,08,29,7.10
2017,10,15,08,30,7.10
2017,10,15,08,31,7.10
2017,10,15,08,32,7.10
2017,10,15,08,33,7.10
2017,10,15,08,34,7.10
2017,10,15,08,35,7.10
2017,10,15,08,36,7.20
2017,10,15,08,37,7.20
2017,10,15,08,38,7.20
2017,10,15,08,39,7.20
2017,10,15,08,40,7.30
2017,10,15,08,41,7.40
2017,10,15,08,42,7.40
2017,10,15,08,43,7.50
2017,10,15,08,44,7.60
2017,10,15,08,45,7.70
2017,10,15,08,46,7.70
2017,10,15,08,47,7.80
2017,10,15,08,48,7.80
2017,10,15,08,49,7.90
2017,10,15,08,50,7.90
2017,10,15,08,51,7.90
2017,10,15,08,52,8.00
2017,10,15,08,53,8.00
2017,10,15,08,54,8.00
2017,10,15,08,55,8.10
2017,10,15,08,56,8.10
2017,10,15,08,57,8.20
2017,10,15,08,58,8.20
2017,10,15,08,59,8.30
2017,10,15,09,00,8.30
2017,10,15,09,01,8.40
2017,10,15,09,02,8.40
2017,10,15,09,03,8.50
2017,10,15,09,04,8.50
2017,10,15,09,05,8.60
2017,10,15,09,06,8.60
2017,10,15,09,07,8.70
2017,10,15,09,08,8.70
2017,10,15,09,09,8.70
2017,10,15,09,10,8.80
2017,10,15,09,11,8.80
2017,10,15,09,12,8.80
2017,10,15,09,13,8.90
2017,10,15,09,14,8.90
2017,10,15,09,15,8.90
2017,10,15,09,16,9.00
2017,10,15,09,17,9.00
2017,10,15,09,18,9.10
2017,10,15,09,19,9.10
2017,10,15,09,20,9.10
2017,10,15,09,21,9.20
2017,10,15,09,22,9.20
2017,10,15,09,23,9.20
2017,10,15,09,24,9.20
2017,10,15,09,25,9.30
2017,10,15,09,26,9.30
2017,10,15,09,27,9.30
2017,10,15,09,28,9.40
2017,10,15,09,29,9.40
2017,10,15,09,30,9.40
2017,10,15,09,31,9.40
2017,10,15,09,32,9.50
2017,10,15,09,33,9.50
2017,10,15,09,34,9.60
2017,10,15,09,35,9.60
2017,10,15,09,36,9.60
2017,10,15,09,37,9.60
2017,10,15,09,38,9.70
2017,10,15,09,39,9.70
2017,10,15,09,40,9.70
2017,10,15,09,41,9.70
2017,10,15,09,42,9.70
2017,10,15,09,43,9.80
2017,10,15,09,44,9.80
2017,10,15,09,45,9.80
2017,10,15,09,46,9.80
2017,10,15,09,47,9.90
2017,10,15,09,48,9.90
2017,10,15,09,49,9.90
2017,10,15,09,50,9.90
2017,10,15,09,51,9.90
2017,10,15,09,52,10.00
2017,10,15,09,53,10.00
2017,10,15,09,54,10.00
2017,10,15,09,55,10.10
2017,10,15,09,56,10.10
2017,10,15,09,57,10.10
2017,10,15,09,58,10.10
2017,10,15,09,59,10.10
2017,10,15,10,00,10.10
2017,10,15,10,01,10.10
2017,10,15,10,02,10.20
2017,10,15,10,03,10.20
2017,10,15,10,04,10.20
2017,10,15,10,05,10.20
2017,10,15,10,06,10.20
2017,10,15,10,07,10.20
2017,10,15,10,08,10.20
2017,10,15,10,09,10.20
2017,10,15,10,10,10.20
2017,10,15,10,11,10.20
2017,10,15,10,12,10.30
2017,10,15,10,13,10.30
2017,10,15,10,14,10.30
2017,10,15,10,15,10.40
2017,10,15,10,16,10.40
2017,10,15,10,17,10.40
2017,10,15,10,18,10.50
2017,10,15,10,19,10.50
2017,10,15,10,20,10.60
2017,10,15,10,21,10.60
2017,10,15,10,22,10.60
2017,10,15,10,23,10.70
2017,10,15,10,24,10.70
2017,10,15,10,25,10.80
2017,10,15,10,26,10.80
2017,10,15,10,27,10.80
2017,10,15,10,28,10.80
2017,10,15,10,29,10.80
2017,10,15,10,30,10.80
2017,10,15,10,31,10.80
2017,10,15,10,32,10.80
2017,10,15,10,33,10.80
2017,10,15,10,34,10.80
2017,10,15,10,35,10.80
2017,10,15,10,36,10.80
2017,10,15,10,37,10.90
2017,10,15,10,38,10.90
2017,10,15,10,39,10.90
2017,10,15,10,40,10.90
2017,10,15,10,41,10.90
2017,10,15,10,42,11.00
2017,10,15,10,43,11.00
2017,10,15,10,44,11.00
2017,10,15,10,45,11.00
2017,10,15,10,46,11.10
2017,10,15,10,47,11.10
2017,10,15,10,48,11.10
2017,10,15,10,49,11.10
2017,10,15,10,50,11.10
2017,10,15,10,51,11.10
2017,10,15,10,52,11.10
2017,10,15,10,53,11.10
2017,10,15,10,54,11.10
2017,10,15,10,55,11.10
2017,10,15,10,56,11.20
2017,10,15,10,57,11.20
2017,10,15,10,58,11.20
2017,10,15,10,59,11.30
2017,10,15,11,00,11.30
2017,10,15,11,01,11.30
2017,10,15,11,02,11.40
2017,10,15,11,03,11.50
2017,10,15,11,04,11.60
2017,10,15,11,05,11.70
2017,10,15,11,06,11.80
2017,10,15,11,07,11.80
2017,10,15,11,08,11.90
2017,10,15,11,09,11.90
2017,10,15,11,10,12.00
2017,10,15,11,11,12.00
2017,10,15,11,12,12.00
2017,10,15,11,13,12.10
2017,10,15,11,14,12.10
2017,10,15,11,15,12.10
2017,10,15,11,16,12.20
2017,10,15,11,17,12.20
2017,10,15,11,18,12.20
2017,10,15,11,19,12.30
2017,10,15,11,20,12.30
2017,10,15,11,21,12.50
2017,10,15,11,22,12.60
2017,10,15,11,23,12.60
2017,10,15,11,24,12.70
2017,10,15,11,25,12.70
2017,10,15,11,26,12.70
2017,10,15,11,27,12.70
2017,10,15,11,28,12.70
2017,10,15,11,29,12.80
2017,10,15,11,30,12.80
2017,10,15,11,31,12.80
2017,10,15,11,32,12.80
2017,10,15,11,33,12.80
2017,10,15,11,34,12.80
2017,10,15,11,35,12.80
2017,10,15,11,36,12.80
2017,10,15,11,37,12.80
2017,10,15,11,38,12.90
2017,10,15,11,39,12.90
2017,10,15,11,40,12.90
2017,10,15,11,41,13.00
2017,10,15,11,42,13.00
2017,10,15,11,43,13.10
2017,10,15,11,44,13.10
2017,10,15,11,45,13.20
2017,10,15,11,46,13.20
2017,10,15,11,47,13.20
2017,10,15,11,48,13.20
2017,10,15,11,49,13.20
2017,10,15,11,50,13.20
2017,10,15,11,51,13.20
2017,10,15,11,52,13.30
2017,10,15,11,53,13.30
2017,10,15,11,54,13.30
2017,10,15,11,55,13.30
2017,10,15,11,56,13.30
2017,10,15,11,57,13.30
2017,10,15,11,58,13.30
2017,10,15,11,59,13.30
2017,10,15,12,00,13.30
2017,10,15,12,01,13.30
2017,10,15,12,02,13.40
2017,10,15,12,03,13.40
2017,10,15,12,04,13.50
2017,10,15,12,05,13.50
2017,10,15,12,06,13.60
2017,10,15,12,07,13.60
2017,10,15,12,08,13.70
2017,10,15,12,09,13.80
2017,10,15,12,10,13.90
2017,10,15,12,11,13.90
2017,10,15,12,12,14.00
2017,10,15,12,13,14.00
2017,10,15,12,14,14.10
2017,10,15,12,15,14.10
2017,10,15,12,16,14.10
2017,10,15,12,17,14.10
2017,10,15,12,18,14.00
2017,10,15,12,19,14.00
2017,10,15,12,20,14.00
2017,10,15,12,21,13.90
2017,10,15,12,22,13.90
2017,10,15,12,23,13.90
2017,10,15,12,24,13.90
2017,10,15,12,25,13.90
2017,10,15,12,26,13.90
2017,10,15,12,27,14.00
2017,10,15,12,28,14.00
2017,10,15,12,29,14.10
2017,10,15,12,30,14.10
2017,10,15,12,31,14.20
2017,10,15,12,32,14.20
2017,10,15,12,33,14.20
2017,10,15,12,34,14.30
2017,10,15,12,35,14.30
2017,10,15,12,36,14.40
2017,10,15,12,37,14.50
2017,10,15,12,38,14.60
2017,10,15,12,39,14.60
2017,10,15,12,40,14.60
2017,10,15,12,41,14.70
2017,10,15,12,42,14.70
2017,10,15,12,43,14.80
2017,10,15,12,44,14.80
2017,10,15,12,45,14.80
2017,10,15,12,46,14.80
2017,10,15,12,47,14.90
2017,10,15,12,48,14.90
2017,10,15,12,49,14.80
2017,10,15,12,50,14.80
2017,10,15,12,51,14.80
2017,10,15,12,52,14.80
2017,10,15,12,53,14.80
2017,10,15,12,54,14.80
2017,10,15,12,55,14.80
2017,10,15,12,56,14.80
2017,10,15,12,57,14.80
2017,10,15,12,58,14.80
2017,10,15,12,59,14.70
2017,10,15,13,00,14.60
2017,10,15,13,01,14.50
2017,10,15,13,02,14.40
2017,10,15,13,03,14.40
2017,10,15,13,04,14.50
2017,10,15,13,05,14.50
2017,10,15,13,06,14.60
2017,10,15,13,07,14.60
2017,10,15,13,08,14.70
2017,10,15,13,09,14.70
2017,10,15,13,10,14.80
2017,10,15,13,11,14.80
2017,10,15,13,12,14.80
2017,10,15,13,13,14.80
2017,10,15,13,14,14.80
2017,10,15,13,15,14.80
2017,10,15,13,16,14.80
2017,10,15,13,17,14.80
2017,10,15,13,18,14.70
2017,10,15,13,19,14.70
2017,10,15,13,20,14.80
2017,10,15,13,21,14.80
2017,10,15,13,22,14.90
2017,10,15,13,23,14.90
2017,10,15,13,24,14.90
2017,10,15,13,25,15.00
2017,10,15,13,26,15.00
2017,10,15,13,27,15.10
2017,10,15,13,28,15.10
2017,10,15,13,29,15.10
2017,10,15,13,30,15.10
2017,10,15,13,31,15.10
2017,10,15,13,32,15.10
2017,10,15,13,33,15.10
2017,10,15,13,34,15.20
2017,10,15,13,35,15.20
2017,10,15,13,36,15.20
2017,10,15,13,37,15.20
2017,10,15,13,38,15.30
2017,10,15,13,39,15.30
2017,10,15,13,40,15.30
2017,10,15,13,41,15.30
2017,10,15,13,42,15.30
2017,10,15,13,43,15.30
2017,10,15,13,44,15.30
2017,10,15,13,45,15.40
2017,10,15,13,46,15.40
2017,10,15,13,47,15.50
2017,10,15,13,48,15.60
2017,10,15,13,49,15.70
2017,10,15,13,50,15.70
2017,10,15,13,51,15.80
2017,10,15,13,52,15.90
2017,10,15,13,53,15.90
2017,10,15,13,54,15.90
2017,10,15,13,55,16.00
2017,10,15,13,56,16.00
2017,10,15,13,57,16.10
2017,10,15,13,58,16.10
2017,10,15,13,59,16.20
2017,10,15,14,00,16.20
2017,10,15,14,01,16.10
2017,10,15,14,02,16.10
2017,10,15,14,03,16.00
2017,10,15,14,04,16.00
2017,10,15,14,05,16.00
2017,10,15,14,06,15.90
2017,10,15,14,07,15.90
2017,10,15,14,08,15.90
2017,10,15,14,09,15.90
2017,10,15,14,10,15.90
2017,10,15,14,11,15.80
2017,10,15,14,12,15.90
2017,10,15,14,13,16.00
2017,10,15,14,14,16.10
2017,10,15,14,15,16.10
2017,10,15,14,16,16.20
2017,10,15,14,17,16.30
2017,10,15,14,18,16.30
2017,10,15,14,19,16.40
2017,10,15,14,20,16.40
2017,10,15,14,21,16.40
2017,10,15,14,22,16.50
2017,10,15,14,23,16.50
2017,10,15,14,24,16.50
2017,10,15,14,25,16.60
2017,10,15,14,26,16.60
2017,10,15,14,27,16.60
2017,10,15,14,28,16.60
2017,10,15,14,29,16.50
2017,10,15,14,30,16.50
2017,10,15,14,31,16.40
2017,10,15,14,32,16.40
2017,10,15,14,33,16.30
2017,10,15,14,34,16.30
2017,10,15,14,35,16.20
2017,10,15,14,36,16.20
2017,10,15,14,37,16.10
2017,10,15,14,38,16.10
2017,10,15,14,39,16.20
2017,10,15,14,40,16.20
2017,10,15,14,41,16.20
2017,10,15,14,42,16.20
2017,10,15,14,43,16.20
2017,10,15,14,44,16.20
2017,10,15,14,45,16.20
2017,10,15,14,46,16.30
2017,10,15,14,47,16.30
2017,10,15,14,48,16.30
2017,10,15,14,49,16.20
2017,10,15,14,50,16.20
2017,10,15,14,51,16.20
2017,10,15,14,52,16.20
2017,10,15,14,53,16.20
2017,10,15,14,54,16.20
2017,10,15,14,55,16.20
2017,10,15,14,56,16.20
2017,10,15,14,57,16.30
2017,10,15,14,58,16.30
2017,10,15,14,59,16.40
2017,10,15,15,00,16.40
2017,10,15,15,01,16.40
2017,10,15,15,02,16.40
2017,10,15,15,03,16.50
2017,10,15,15,04,16.50
2017,10,15,15,05,16.50
2017,10,15,15,06,16.50
2017,10,15,15,07,16.50
2017,10,15,15,08,16.50
2017,10,15,15,09,16.50
2017,10,15,15,10,16.40
2017,10,15,15,11,16.40
2017,10,15,15,12,16.40
2017,10,15,15,13,16.40
2017,10,15,15,14,16.40
2017,10,15,15,15,16.40
2017,10,15,15,16,16.40
2017,10,15,15,17,16.40
2017,10,15,15,18,16.40
2017,10,15,15,19,16.40
2017,10,15,15,20,16.40
2017,10,15,15,21,16.30
2017,10,15,15,22,16.30
2017,10,15,15,23,16.40
2017,10,15,15,24,16.40
2017,10,15,15,25,16.40
2017,10,15,15,26,16.40
2017,10,15,15,27,16.40
2017,10,15,15,28,16.40
2017,10,15,15,29,16.40
2017,10,15,15,30,16.40
2017,10,15,15,31,16.40
2017,10,15,15,32,16.40
2017,10,15,15,33,16.40
2017,10,15,15,34,16.40
2017,10,15,15,35,16.40
2017,10,15,15,36,16.40
2017,10,15,15,37,16.40
2017,10,15,15,38,16.40
2017,10,15,15,39,16.40
2017,10,15,15,40,16.50
2017,10,15,15,41,16.50
2017,10,15,15,42,16.50
2017,10,15,15,43,16.60
2017,10,15,15,44,16.60
2017,10,15,15,45,16.60
2017,10,15,15,46,16.60
2017,10,15,15,47,16.60
2017,10,15,15,48,16.60
2017,10,15,15,49,16.60
2017,10,15,15,50,16.50
2017,10,15,15,51,16.50
2017,10,15,15,52,16.60
2017,10,15,15,53,16.60
2017,10,15,15,54,16.60
2017,10,15,15,55,16.60
2017,10,15,15,56,16.60
2017,10,15,15,57,16.60
2017,10,15,15,58,16.60
2017,10,15,15,59,16.60
2017,10,15,16,00,16.60
2017,10,15,16,01,16.60
2017,10,15,16,02,16.60
2017,10,15,16,03,16.60
2017,10,15,16,04,16.50
2017,10,15,16,05,16.50
2017,10,15,16,06,16.40
2017,10,15,16,07,16.40
2017,10,15,16,08,16.40
2017,10,15,16,09,16.30
2017,10,15,17,04,15.30
2017,10,15,17,05,15.30
2017,10,15,17,06,15.30
2017,10,15,17,07,15.30
2017,10,15,17,08,15.30
2017,10,15,17,09,15.30
2017,10,15,17,10,15.30
2017,10,15,17,11,15.30
2017,10,15,17,12,15.30
2017,10,15,17,13,15.30
2017,10,15,17,14,15.20
2017,10,15,17,15,15.20
2017,10,15,17,16,15.10
2017,10,15,17,17,15.00
2017,10,15,17,18,15.00
2017,10,15,17,19,15.00
2017,10,15,17,20,14.90
2017,10,15,17,21,14.90
2017,10,15,17,22,14.90
2017,10,15,17,23,14.90
2017,10,15,17,24,14.80
2017,10,15,17,25,14.80
2017,10,15,17,26,14.80
2017,10,15,17,27,14.70
2017,10,15,17,28,14.70
2017,10,15,17,29,14.70
2017,10,15,17,30,14.70
2017,10,15,17,31,14.70
2017,10,15,17,32,14.70
2017,10,15,17,33,14.70
2017,10,15,17,34,14.60
2017,10,15,17,35,14.60
2017,10,15,17,36,14.60
2017,10,15,17,37,14.60
2017,10,15,17,38,14.60
2017,10,15,17,39,14.60
2017,10,15,17,40,14.60
2017,10,15,17,41,14.60
2017,10,15,17,42,14.60
2017,10,15,17,43,14.60
2017,10,15,17,44,14.60
2017,10,15,17,45,14.60
2017,10,15,17,46,14.60
2017,10,15,17,47,14.60
2017,10,15,17,48,14.50
2017,10,15,17,49,14.50
2017,10,15,17,50,14.50
2017,10,15,17,51,14.40
2017,10,15,17,52,14.40
2017,10,15,17,53,14.30
2017,10,15,17,54,14.30
2017,10,15,17,55,14.30
2017,10,15,17,56,14.20
2017,10,15,17,57,14.20
2017,10,15,17,58,14.20
2017,10,15,17,59,14.20
2017,10,15,18,00,14.20
2017,10,15,18,01,14.10
2017,10,15,18,02,14.00
2017,10,15,18,03,13.90
2017,10,15,18,04,13.90
2017,10,15,18,05,13.80
2017,10,15,18,06,13.70
2017,10,15,18,07,13.60
2017,10,15,18,08,13.60
2017,10,15,18,09,13.50
2017,10,15,18,10,13.40
2017,10,15,18,11,13.30
2017,10,15,18,12,13.30
2017,10,15,18,13,13.20
2017,10,15,18,14,13.10
2017,10,15,18,15,13.10
2017,10,15,18,16,13.00
2017,10,15,18,17,13.00
2017,10,15,18,18,12.90
2017,10,15,18,19,12.80
2017,10,15,18,20,12.80
2017,10,15,18,21,12.70
2017,10,15,18,22,12.70
2017,10,15,18,23,12.70
2017,10,15,18,24,12.60
2017,10,15,18,25,12.60
2017,10,15,18,26,12.60
2017,10,15,18,27,12.50
2017,10,15,18,28,12.50
2017,10,15,18,29,12.50
2017,10,15,18,30,12.50
2017,10,15,18,31,12.40
2017,10,15,18,32,12.40
2017,10,15,18,33,12.40
2017,10,15,18,34,12.40
2017,10,15,18,35,12.30
2017,10,15,18,36,12.30
2017,10,15,18,37,12.30
2017,10,15,18,38,12.30
2017,10,15,18,39,12.30
2017,10,15,18,40,12.20
2017,10,15,18,41,12.20
2017,10,15,18,42,12.20
2017,10,15,18,43,12.10
2017,10,15,18,44,12.10
2017,10,15,18,45,12.00
2017,10,15,18,46,12.00
2017,10,15,18,47,11.90
2017,10,15,18,48,11.90
2017,10,15,18,49,11.90
2017,10,15,18,50,11.80
2017,10,15,18,51,11.80
2017,10,15,18,52,11.80
2017,10,15,18,53,11.80
2017,10,15,18,54,11.70
2017,10,15,18,55,11.70
2017,10,15,18,56,11.70
2017,10,15,18,57,11.60
2017,10,15,18,58,11.60
2017,10,15,18,59,11.60
2017,10,15,19,00,11.60
2017,10,15,19,01,11.60
2017,10,15,19,02,11.60
2017,10,15,19,03,11.50
2017,10,15,19,04,11.50
2017,10,15,19,05,11.50
2017,10,15,19,06,11.40
2017,10,15,19,07,11.40
2017,10,15,19,08,11.40
2017,10,15,19,09,11.40
2017,10,15,19,10,11.30
2017,10,15,19,11,11.30
2017,10,15,19,12,11.30
2017,10,15,19,13,11.30
2017,10,15,19,14,11.30
2017,10,15,19,15,11.30
2017,10,15,19,16,11.30
2017,10,15,19,17,11.30
2017,10,15,19,18,11.30
2017,10,15,19,19,11.30
2017,10,15,19,20,11.20
2017,10,15,19,21,11.20
2017,10,15,19,22,11.20
2017,10,15,19,23,11.20
2017,10,15,19,24,11.20
2017,10,15,19,25,11.20
2017,10,15,19,26,11.10
2017,10,15,19,27,11.10
2017,10,15,19,28,11.10
2017,10,15,19,29,11.10
2017,10,15,19,30,11.10
2017,10,15,19,31,11.10
2017,10,15,19,32,11.10
2017,10,15,19,33,11.10
2017,10,15,19,34,11.00
2017,10,15,19,35,11.00
2017,10,15,19,36,11.00
2017,10,15,19,37,11.00
2017,10,15,19,38,11.00
2017,10,15,19,39,11.00
2017,10,15,19,40,10.90
2017,10,15,19,41,10.90
2017,10,15,19,42,10.90
2017,10,15,19,43,10.90
2017,10,15,19,44,10.90
2017,10,15,19,45,10.90
2017,10,15,19,46,10.90
2017,10,15,19,47,10.90
2017,10,15,19,48,10.90
2017,10,15,19,49,10.90
2017,10,15,19,50,10.90
2017,10,15,19,51,10.90
2017,10,15,19,52,10.90
2017,10,15,19,53,10.90
2017,10,15,19,54,10.90
2017,10,15,19,55,10.90
2017,10,15,19,56,10.80
2017,10,15,19,57,10.80
2017,10,15,19,58,10.80
2017,10,15,19,59,10.80
2017,10,15,20,00,10.80
2017,10,15,20,01,10.80
2017,10,15,20,02,10.80
2017,10,15,20,03,10.80
2017,10,15,20,04,10.80
2017,10,15,20,05,10.80
2017,10,15,20,06,10.80
2017,10,15,20,07,10.80
2017,10,15,20,08,10.80
2017,10,15,20,09,10.80
2017,10,15,20,10,10.80
2017,10,15,20,11,10.80
2017,10,15,20,12,10.80
2017,10,15,20,13,10.80
2017,10,15,20,14,10.70
2017,10,15,20,15,10.70
2017,10,15,20,16,10.70
2017,10,15,20,17,10.70
2017,10,15,20,18,10.70
2017,10,15,20,19,10.70
2017,10,15,20,20,10.70
2017,10,15,20,21,10.70
2017,10,15,20,22,10.60
2017,10,15,20,23,10.60
2017,10,15,20,24,10.60
2017,10,15,20,25,10.60
2017,10,15,20,26,10.60
2017,10,15,20,27,10.60
2017,10,15,20,28,10.60
2017,10,15,20,29,10.60
2017,10,15,20,30,10.60
2017,10,15,20,31,10.60
2017,10,15,20,32,10.50
2017,10,15,20,33,10.50
2017,10,15,20,34,10.50
2017,10,15,20,35,10.50
2017,10,15,20,36,10.50
2017,10,15,20,37,10.50
2017,10,15,20,38,10.40
2017,10,15,20,39,10.40
2017,10,15,20,40,10.40
2017,10,15,20,41,10.40
2017,10,15,20,42,10.40
2017,10,15,20,43,10.40
2017,10,15,20,44,10.40
2017,10,15,20,45,10.40
2017,10,15,20,46,10.40
2017,10,15,20,47,10.40
2017,10,15,20,48,10.40
2017,10,15,20,49,10.40
2017,10,15,20,50,10.40
2017,10,15,20,51,10.40
2017,10,15,20,52,10.40
2017,10,15,20,53,10.40
2017,10,15,20,54,10.40
2017,10,15,20,55,10.30